Time,TemperatureF,DewpointF,PressureIn,WindDirection,WindDirectionDegrees,WindSpeedMPH,WindSpeedGustMPH,Humidity,HourlyPrecipIn,Conditions,Clouds,dailyrainin,SoftwareType,DateUTC
2012-11-07 00:00:00,47.9,45.7,30.01,ESE,113,1.3,9.2,92,0.00,,,0.00,WUHU216HW,2012-11-07 08:00:00,
2012-11-07 00:05:00,47.9,45.7,30.00,SW,225,7.8,9.2,92,0.00,,,0.00,WUHU216HW,2012-11-07 08:05:00,
2012-11-07 00:10:00,47.9,45.7,30.00,SW,225,0.4,7.8,92,0.00,,,0.00,WUHU216HW,2012-11-07 08:10:00,
2012-11-07 00:15:00,47.9,45.7,30.00,WNW,293,0.9,7.8,92,0.00,,,0.00,WUHU216HW,2012-11-07 08:15:00,
2012-11-07 00:20:00,47.7,45.5,30.01,SSW,203,1.3,4.9,92,0.00,,,0.00,WUHU216HW,2012-11-07 08:20:00,
2012-11-07 00:25:00,47.7,45.5,30.01,WNW,293,3.8,4.0,92,0.00,,,0.00,WUHU216HW,2012-11-07 08:25:00,
2012-11-07 00:30:00,47.5,45.4,30.01,SSW,203,3.4,8.3,92,0.00,,,0.00,WUHU216HW,2012-11-07 08:30:00,
2012-11-07 00:35:00,47.5,45.1,30.01,WSW,248,1.3,8.3,91,0.00,,,0.00,WUHU216HW,2012-11-07 08:35:00,
2012-11-07 00:40:00,47.5,45.1,30.01,South,180,2.5,7.6,91,0.00,,,0.00,WUHU216HW,2012-11-07 08:40:00,
2012-11-07 00:45:00,47.5,45.1,30.01,SW,225,5.6,8.9,91,0.00,,,0.00,WUHU216HW,2012-11-07 08:45:00,
2012-11-07 00:50:00,47.5,45.1,30.01,West,270,6.3,8.9,91,0.00,,,0.00,WUHU216HW,2012-11-07 08:50:00,
2012-11-07 00:55:00,47.5,45.1,30.01,West,270,3.4,9.4,91,0.00,,,0.00,WUHU216HW,2012-11-07 08:55:00,
2012-11-07 01:00:00,47.5,45.1,30.01,SW,225,3.4,9.4,91,0.00,,,0.00,WUHU216HW,2012-11-07 09:00:00,
2012-11-07 01:05:00,47.5,45.1,30.01,South,180,4.5,7.8,91,0.00,,,0.00,WUHU216HW,2012-11-07 09:05:00,
2012-11-07 01:10:00,47.5,45.1,30.02,WSW,248,4.0,6.7,91,0.00,,,0.00,WUHU216HW,2012-11-07 09:10:00,
2012-11-07 01:15:00,47.5,45.1,30.02,WSW,248,4.0,9.8,91,0.00,,,0.00,WUHU216HW,2012-11-07 09:15:00,
2012-11-07 01:20:00,47.5,45.1,30.02,South,180,6.5,9.8,91,0.00,,,0.00,WUHU216HW,2012-11-07 09:20:00,
2012-11-07 01:25:00,47.5,45.1,30.02,SW,225,7.2,13.6,91,0.00,,,0.00,WUHU216HW,2012-11-07 09:25:00,
2012-11-07 01:30:00,47.7,45.3,30.02,SW,225,2.5,13.6,91,0.00,,,0.00,WUHU216HW,2012-11-07 09:30:00,
2012-11-07 01:35:00,47.5,45.1,30.02,WSW,248,2.5,7.2,91,0.00,,,0.00,WUHU216HW,2012-11-07 09:35:00,
2012-11-07 01:40:00,47.5,45.1,30.02,West,270,4.0,7.4,91,0.00,,,0.00,WUHU216HW,2012-11-07 09:40:00,
2012-11-07 01:45:00,47.5,45.1,30.02,West,270,1.8,7.4,91,0.00,,,0.00,WUHU216HW,2012-11-07 09:45:00,
2012-11-07 01:50:00,47.3,44.9,30.02,WSW,248,6.9,7.4,91,0.00,,,0.00,WUHU216HW,2012-11-07 09:50:00,
2012-11-07 01:55:00,47.3,44.9,30.02,SW,225,3.4,6.9,91,0.00,,,0.00,WUHU216HW,2012-11-07 09:55:00,
2012-11-07 02:00:00,47.2,44.7,30.02,SW,225,2.5,8.9,91,0.00,,,0.00,WUHU216HW,2012-11-07 10:00:00,
2012-11-07 02:05:00,47.2,44.7,30.02,SSW,203,2.7,8.9,91,0.00,,,0.00,WUHU216HW,2012-11-07 10:05:00,
2012-11-07 02:10:00,47.2,44.7,30.02,SW,225,6.9,8.5,91,0.00,,,0.00,WUHU216HW,2012-11-07 10:10:00,
2012-11-07 02:15:00,47.2,44.7,30.02,WSW,248,3.1,7.8,91,0.00,,,0.00,WUHU216HW,2012-11-07 10:15:00,
2012-11-07 02:20:00,47.2,44.7,30.02,South,180,3.4,7.8,91,0.00,,,0.00,WUHU216HW,2012-11-07 10:20:00,
2012-11-07 02:25:00,47.0,44.6,30.02,WSW,248,3.4,6.9,91,0.00,,,0.00,WUHU216HW,2012-11-07 10:25:00,
2012-11-07 02:30:00,46.8,44.4,30.02,SSW,203,4.3,5.8,91,0.00,,,0.00,WUHU216HW,2012-11-07 10:30:00,
2012-11-07 02:35:00,46.8,44.4,30.02,South,180,1.3,5.8,91,0.00,,,0.00,WUHU216HW,2012-11-07 10:35:00,
2012-11-07 02:40:00,46.8,44.4,30.03,SW,225,4.7,9.6,91,0.00,,,0.00,WUHU216HW,2012-11-07 10:40:00,
2012-11-07 02:45:00,46.6,44.2,30.03,West,270,5.4,9.6,91,0.00,,,0.00,WUHU216HW,2012-11-07 10:45:00,
2012-11-07 02:50:00,46.6,44.2,30.03,SSW,203,2.7,9.6,91,0.00,,,0.00,WUHU216HW,2012-11-07 10:50:00,
2012-11-07 02:55:00,46.4,44.0,30.03,WSW,248,6.0,6.9,91,0.00,,,0.00,WUHU216HW,2012-11-07 10:55:00,
2012-11-07 03:00:00,46.4,43.7,30.03,SW,225,2.0,6.9,90,0.00,,,0.00,WUHU216HW,2012-11-07 11:00:00,
2012-11-07 03:05:00,46.3,43.8,30.03,WSW,248,2.0,6.0,91,0.00,,,0.00,WUHU216HW,2012-11-07 11:05:00,
2012-11-07 03:10:00,46.3,43.8,30.03,SW,225,4.5,6.9,91,0.00,,,0.00,WUHU216HW,2012-11-07 11:10:00,
2012-11-07 03:15:00,46.1,43.7,30.03,West,270,8.5,8.5,91,0.00,,,0.00,WUHU216HW,2012-11-07 11:15:00,
2012-11-07 03:20:00,46.1,43.7,30.03,SW,225,4.7,8.5,91,0.00,,,0.00,WUHU216HW,2012-11-07 11:20:00,
2012-11-07 03:25:00,46.1,43.7,30.03,SSW,203,5.1,8.5,91,0.00,,,0.00,WUHU216HW,2012-11-07 11:25:00,
2012-11-07 03:30:00,46.1,43.7,30.03,WSW,248,5.6,8.1,91,0.00,,,0.00,WUHU216HW,2012-11-07 11:30:00,
2012-11-07 03:35:00,45.9,43.5,30.03,WSW,248,4.3,10.1,91,0.00,,,0.00,WUHU216HW,2012-11-07 11:35:00,
2012-11-07 03:40:00,45.9,43.5,30.04,SW,225,5.4,13.4,91,0.00,,,0.00,WUHU216HW,2012-11-07 11:40:00,
2012-11-07 03:45:00,45.9,43.5,30.04,SW,225,2.5,13.4,91,0.00,,,0.00,WUHU216HW,2012-11-07 11:45:00,
2012-11-07 03:50:00,45.9,43.5,30.04,WNW,293,0.9,8.1,91,0.00,,,0.00,WUHU216HW,2012-11-07 11:50:00,
2012-11-07 03:55:00,45.7,43.3,30.04,West,270,3.4,5.6,91,0.00,,,0.00,WUHU216HW,2012-11-07 11:55:00,
2012-11-07 04:00:00,45.7,43.3,30.04,South,180,4.5,4.5,91,0.00,,,0.00,WUHU216HW,2012-11-07 12:00:00,
2012-11-07 04:05:00,45.7,43.3,30.04,NW,315,0.9,5.8,91,0.00,,,0.00,WUHU216HW,2012-11-07 12:05:00,
2012-11-07 04:10:00,45.7,43.3,30.04,SW,225,2.9,7.2,91,0.00,,,0.00,WUHU216HW,2012-11-07 12:10:00,
2012-11-07 04:15:00,45.5,43.1,30.04,WSW,248,6.9,7.2,91,0.00,,,0.00,WUHU216HW,2012-11-07 12:15:00,
2012-11-07 04:20:00,45.5,43.1,30.04,WSW,248,1.1,6.9,91,0.00,,,0.00,WUHU216HW,2012-11-07 12:20:00,
2012-11-07 04:25:00,45.5,43.1,30.05,SW,225,2.5,6.9,91,0.00,,,0.00,WUHU216HW,2012-11-07 12:25:00,
2012-11-07 04:30:00,45.4,42.9,30.05,WSW,248,0.7,4.0,91,0.00,,,0.00,WUHU216HW,2012-11-07 12:30:00,
2012-11-07 04:35:00,45.4,42.9,30.05,South,180,2.5,2.9,91,0.00,,,0.00,WUHU216HW,2012-11-07 12:35:00,
2012-11-07 04:40:00,45.2,42.8,30.05,SSW,203,2.5,2.5,91,0.00,,,0.00,WUHU216HW,2012-11-07 12:40:00,
2012-11-07 04:45:00,45.0,42.6,30.05,East,90,0.0,5.6,91,0.00,,,0.00,WUHU216HW,2012-11-07 12:45:00,
2012-11-07 04:50:00,45.0,42.8,30.05,ESE,113,1.1,5.6,92,0.00,,,0.00,WUHU216HW,2012-11-07 12:50:00,
2012-11-07 04:55:00,45.0,42.8,30.06,WSW,248,2.5,5.4,92,0.00,,,0.00,WUHU216HW,2012-11-07 12:55:00,
2012-11-07 05:00:00,45.0,42.8,30.06,West,270,0.0,5.4,92,0.00,,,0.00,WUHU216HW,2012-11-07 13:00:00,
2012-11-07 05:05:00,45.0,42.6,30.06,East,90,0.7,2.5,91,0.00,,,0.00,WUHU216HW,2012-11-07 13:05:00,
2012-11-07 05:10:00,44.8,42.4,30.06,SSW,203,0.0,1.8,91,0.00,,,0.00,WUHU216HW,2012-11-07 13:10:00,
2012-11-07 05:15:00,44.6,42.2,30.06,West,270,3.4,5.8,91,0.00,,,0.00,WUHU216HW,2012-11-07 13:15:00,
2012-11-07 05:20:00,44.6,42.2,30.07,SSW,203,3.4,5.8,91,0.00,,,0.00,WUHU216HW,2012-11-07 13:20:00,
2012-11-07 05:25:00,44.5,42.0,30.07,WSW,248,0.4,4.0,91,0.00,,,0.00,WUHU216HW,2012-11-07 13:25:00,
2012-11-07 05:30:00,44.5,42.0,30.07,WSW,248,1.3,3.4,91,0.00,,,0.00,WUHU216HW,2012-11-07 13:30:00,
2012-11-07 05:35:00,44.3,41.9,30.07,SSW,203,1.8,3.1,91,0.00,,,0.00,WUHU216HW,2012-11-07 13:35:00,
2012-11-07 05:40:00,44.3,41.9,30.07,SW,225,1.1,3.1,91,0.00,,,0.00,WUHU216HW,2012-11-07 13:40:00,
2012-11-07 05:45:00,44.3,41.9,30.07,SSW,203,0.7,4.0,91,0.00,,,0.00,WUHU216HW,2012-11-07 13:45:00,
2012-11-07 05:50:00,44.1,41.7,30.07,WSW,248,1.6,4.0,91,0.00,,,0.00,WUHU216HW,2012-11-07 13:50:00,
2012-11-07 05:55:00,44.1,41.7,30.07,WSW,248,0.4,4.0,91,0.00,,,0.00,WUHU216HW,2012-11-07 13:55:00,
2012-11-07 06:00:00,44.1,41.7,30.07,SW,225,1.6,3.4,91,0.00,,,0.00,WUHU216HW,2012-11-07 14:00:00,
2012-11-07 06:05:00,43.9,41.8,30.07,SW,225,0.0,2.2,92,0.00,,,0.00,WUHU216HW,2012-11-07 14:05:00,
2012-11-07 06:10:00,43.9,41.8,30.07,SW,225,0.0,1.8,92,0.00,,,0.00,WUHU216HW,2012-11-07 14:10:00,
2012-11-07 06:15:00,43.9,41.8,30.07,SW,225,0.0,0.4,92,0.00,,,0.00,WUHU216HW,2012-11-07 14:15:00,
2012-11-07 06:20:00,43.9,41.8,30.07,SW,225,0.4,1.1,92,0.00,,,0.00,WUHU216HW,2012-11-07 14:20:00,
2012-11-07 06:25:00,43.9,41.8,30.08,SW,225,1.1,1.8,92,0.00,,,0.00,WUHU216HW,2012-11-07 14:25:00,
2012-11-07 06:30:00,43.7,41.6,30.08,WSW,248,1.3,2.2,92,0.00,,,0.00,WUHU216HW,2012-11-07 14:30:00,
2012-11-07 06:35:00,43.6,41.4,30.08,WSW,248,1.1,2.2,92,0.00,,,0.00,WUHU216HW,2012-11-07 14:35:00,
2012-11-07 06:40:00,43.4,41.2,30.08,WSW,248,1.1,1.6,92,0.00,,,0.00,WUHU216HW,2012-11-07 14:40:00,
2012-11-07 06:45:00,43.2,41.0,30.08,WSW,248,2.2,2.7,92,0.00,,,0.00,WUHU216HW,2012-11-07 14:45:00,
2012-11-07 06:50:00,43.0,40.9,30.08,WSW,248,3.1,3.1,92,0.00,,,0.00,WUHU216HW,2012-11-07 14:50:00,
2012-11-07 06:55:00,42.8,40.7,30.08,WSW,248,2.5,3.4,92,0.00,,,0.00,WUHU216HW,2012-11-07 14:55:00,
2012-11-07 07:00:00,42.8,40.7,30.09,WSW,248,2.5,3.8,92,0.00,,,0.00,WUHU216HW,2012-11-07 15:00:00,
2012-11-07 07:05:00,42.7,40.5,30.09,WSW,248,2.5,3.8,92,0.00,,,0.00,WUHU216HW,2012-11-07 15:05:00,
2012-11-07 07:10:00,42.7,40.5,30.09,WSW,248,2.0,2.5,92,0.00,,,0.00,WUHU216HW,2012-11-07 15:10:00,
2012-11-07 07:15:00,42.7,40.5,30.09,WSW,248,1.8,2.5,92,0.00,,,0.00,WUHU216HW,2012-11-07 15:15:00,
2012-11-07 07:20:00,42.5,40.3,30.09,SW,225,1.6,2.0,92,0.00,,,0.00,WUHU216HW,2012-11-07 15:20:00,
2012-11-07 07:25:00,42.7,40.5,30.09,WSW,248,0.9,2.2,92,0.00,,,0.00,WUHU216HW,2012-11-07 15:25:00,
2012-11-07 07:30:00,42.8,41.0,30.10,NW,315,0.2,2.2,93,0.00,,,0.00,WUHU216HW,2012-11-07 15:30:00,
2012-11-07 07:35:00,43.0,41.1,30.10,WNW,293,0.0,2.2,93,0.00,,,0.00,WUHU216HW,2012-11-07 15:35:00,
2012-11-07 07:40:00,43.0,41.1,30.10,WNW,293,0.0,0.7,93,0.00,,,0.00,WUHU216HW,2012-11-07 15:40:00,
2012-11-07 07:45:00,43.2,41.3,30.10,WNW,293,0.0,0.0,93,0.00,,,0.00,WUHU216HW,2012-11-07 15:45:00,
2012-11-07 07:50:00,43.4,41.5,30.10,WNW,293,0.2,0.7,93,0.00,,,0.00,WUHU216HW,2012-11-07 15:50:00,
2012-11-07 07:55:00,43.4,41.5,30.10,WSW,248,0.7,0.9,93,0.00,,,0.00,WUHU216HW,2012-11-07 15:55:00,
2012-11-07 08:00:00,43.4,41.5,30.10,SW,225,0.7,1.1,93,0.00,,,0.00,WUHU216HW,2012-11-07 16:00:00,
2012-11-07 08:05:00,43.6,41.7,30.10,SW,225,1.1,1.1,93,0.00,,,0.00,WUHU216HW,2012-11-07 16:05:00,
2012-11-07 09:00:00,45.9,44.3,30.10,SW,225,3.6,3.6,94,0.00,,,0.00,WUHU216HW,2012-11-07 17:00:00,
2012-11-07 09:05:00,46.1,44.5,30.10,SSW,203,4.7,6.7,94,0.00,,,0.00,WUHU216HW,2012-11-07 17:05:00,
2012-11-07 09:10:00,46.3,44.6,30.10,SW,225,2.0,6.7,94,0.00,,,0.00,WUHU216HW,2012-11-07 17:10:00,
2012-11-07 09:15:00,46.4,44.8,30.09,SW,225,5.1,5.1,94,0.00,,,0.00,WUHU216HW,2012-11-07 17:15:00,
2012-11-07 09:20:00,46.4,44.6,30.09,West,270,6.3,6.5,93,0.00,,,0.00,WUHU216HW,2012-11-07 17:20:00,
2012-11-07 09:25:00,46.6,44.7,30.09,WSW,248,4.7,6.9,93,0.00,,,0.00,WUHU216HW,2012-11-07 17:25:00,
2012-11-07 09:30:00,46.8,44.6,30.09,SW,225,3.1,6.9,92,0.00,,,0.00,WUHU216HW,2012-11-07 17:30:00,
2012-11-07 09:35:00,46.8,44.6,30.09,WSW,248,1.8,4.7,92,0.00,,,0.00,WUHU216HW,2012-11-07 17:35:00,
2012-11-07 09:40:00,46.8,44.6,30.09,West,270,3.8,3.8,92,0.00,,,0.00,WUHU216HW,2012-11-07 17:40:00,
2012-11-07 09:45:00,47.0,44.6,30.09,WNW,293,0.7,8.3,91,0.00,,,0.00,WUHU216HW,2012-11-07 17:45:00,
2012-11-07 09:50:00,47.0,44.6,30.09,WSW,248,3.6,8.3,91,0.00,,,0.00,WUHU216HW,2012-11-07 17:50:00,
2012-11-07 09:55:00,47.0,44.6,30.09,SSW,203,5.6,6.7,91,0.00,,,0.00,WUHU216HW,2012-11-07 17:55:00,
2012-11-07 10:00:00,47.2,44.7,30.09,WSW,248,4.7,7.6,91,0.00,,,0.00,WUHU216HW,2012-11-07 18:00:00,
2012-11-07 10:05:00,47.2,44.7,30.09,WNW,293,5.1,7.6,91,0.00,,,0.00,WUHU216HW,2012-11-07 18:05:00,
2012-11-07 10:10:00,47.2,44.7,30.10,WSW,248,4.3,8.7,91,0.00,,,0.00,WUHU216HW,2012-11-07 18:10:00,
2012-11-07 10:15:00,47.2,44.5,30.09,SW,225,2.5,8.7,90,0.00,,,0.00,WUHU216HW,2012-11-07 18:15:00,
2012-11-07 10:20:00,47.3,44.6,30.10,SW,225,3.8,8.5,90,0.00,,,0.00,WUHU216HW,2012-11-07 18:20:00,
2012-11-07 10:25:00,47.3,44.4,30.10,SW,225,1.6,8.5,89,0.00,,,0.00,WUHU216HW,2012-11-07 18:25:00,
2012-11-07 10:30:00,47.3,44.4,30.10,WSW,248,3.6,6.9,89,0.00,,,0.00,WUHU216HW,2012-11-07 18:30:00,
2012-11-07 10:35:00,47.5,44.5,30.10,SSW,203,2.7,6.9,89,0.00,,,0.00,WUHU216HW,2012-11-07 18:35:00,
2012-11-07 10:40:00,47.7,44.6,30.10,WSW,248,2.2,3.6,89,0.00,,,0.00,WUHU216HW,2012-11-07 18:40:00,
2012-11-07 10:45:00,47.9,44.8,30.10,West,270,0.7,2.5,89,0.00,,,0.00,WUHU216HW,2012-11-07 18:45:00,
2012-11-07 10:50:00,47.9,44.8,30.10,WSW,248,2.9,5.4,89,0.00,,,0.00,WUHU216HW,2012-11-07 18:50:00,
2012-11-07 10:55:00,48.2,45.2,30.10,WSW,248,4.3,5.4,89,0.00,,,0.00,WUHU216HW,2012-11-07 18:55:00,
2012-11-07 11:00:00,48.2,44.9,30.10,West,270,4.3,4.3,88,0.00,,,0.00,WUHU216HW,2012-11-07 19:00:00,
2012-11-07 11:05:00,48.4,45.1,30.10,West,270,6.0,6.0,88,0.00,,,0.00,WUHU216HW,2012-11-07 19:05:00,
2012-11-07 11:10:00,48.6,45.2,30.10,West,270,4.0,11.9,88,0.00,,,0.00,WUHU216HW,2012-11-07 19:10:00,
2012-11-07 11:15:00,48.6,45.2,30.10,West,270,1.8,11.9,88,0.00,,,0.00,WUHU216HW,2012-11-07 19:15:00,
2012-11-07 11:20:00,48.6,45.2,30.10,WSW,248,2.5,7.6,88,0.00,,,0.00,WUHU216HW,2012-11-07 19:20:00,
2012-11-07 11:25:00,48.6,45.2,30.10,WSW,248,2.9,5.4,88,0.00,,,0.00,WUHU216HW,2012-11-07 19:25:00,
2012-11-07 11:30:00,49.0,45.5,30.10,WSW,248,4.3,4.7,88,0.00,,,0.00,WUHU216HW,2012-11-07 19:30:00,
2012-11-07 11:35:00,48.8,45.4,30.09,WSW,248,1.1,4.7,88,0.00,,,0.00,WUHU216HW,2012-11-07 19:35:00,
2012-11-07 11:40:00,48.8,45.4,30.09,SSW,203,4.0,4.3,88,0.00,,,0.00,WUHU216HW,2012-11-07 19:40:00,
2012-11-07 11:45:00,49.0,45.3,30.09,West,270,4.9,4.9,87,0.00,,,0.00,WUHU216HW,2012-11-07 19:45:00,
2012-11-07 11:50:00,49.3,45.5,30.09,WSW,248,3.6,4.9,87,0.00,,,0.00,WUHU216HW,2012-11-07 19:50:00,
2012-11-07 11:55:00,49.3,45.5,30.09,SW,225,2.5,4.9,87,0.00,,,0.00,WUHU216HW,2012-11-07 19:55:00,
2012-11-07 12:00:00,49.3,45.3,30.08,West,270,2.5,3.6,86,0.00,,,0.00,WUHU216HW,2012-11-07 20:00:00,
2012-11-07 12:05:00,49.3,45.3,30.08,WSW,248,3.6,3.6,86,0.00,,,0.00,WUHU216HW,2012-11-07 20:05:00,
2012-11-07 12:10:00,49.9,45.8,30.08,West,270,0.9,4.0,86,0.00,,,0.00,WUHU216HW,2012-11-07 20:10:00,
2012-11-07 12:15:00,50.2,46.1,30.08,WSW,248,2.5,6.5,86,0.00,,,0.00,WUHU216HW,2012-11-07 20:15:00,
2012-11-07 12:20:00,50.4,46.3,30.08,WSW,248,2.5,7.2,86,0.00,,,0.00,WUHU216HW,2012-11-07 20:20:00,
2012-11-07 12:25:00,50.6,46.4,30.08,West,270,5.1,7.2,86,0.00,,,0.00,WUHU216HW,2012-11-07 20:25:00,
2012-11-07 12:30:00,50.4,46.3,30.08,West,270,6.3,6.3,86,0.00,,,0.00,WUHU216HW,2012-11-07 20:30:00,
2012-11-07 12:35:00,50.8,46.6,30.08,SSW,203,3.8,6.3,86,0.00,,,0.00,WUHU216HW,2012-11-07 20:35:00,
2012-11-07 12:40:00,50.9,46.5,30.08,NW,315,2.2,6.3,85,0.00,,,0.00,WUHU216HW,2012-11-07 20:40:00,
2012-11-07 12:45:00,51.1,46.7,30.08,SE,135,3.1,3.8,85,0.00,,,0.00,WUHU216HW,2012-11-07 20:45:00,
2012-11-07 12:50:00,51.3,46.9,30.08,SSW,203,2.7,3.8,85,0.00,,,0.00,WUHU216HW,2012-11-07 20:50:00,
2012-11-07 12:55:00,51.5,47.1,30.07,WSW,248,2.5,3.8,85,0.00,,,0.00,WUHU216HW,2012-11-07 20:55:00,
2012-11-07 13:00:00,51.8,47.4,30.08,WSW,248,3.4,6.5,85,0.00,,,0.00,WUHU216HW,2012-11-07 21:00:00,
2012-11-07 13:05:00,51.7,47.0,30.07,SW,225,2.7,6.5,84,0.00,,,0.00,WUHU216HW,2012-11-07 21:05:00,
2012-11-07 13:10:00,51.7,46.6,30.07,SW,225,2.9,3.4,83,0.00,,,0.00,WUHU216HW,2012-11-07 21:10:00,
2012-11-07 13:15:00,51.8,47.2,30.07,SW,225,2.5,4.0,84,0.00,,,0.00,WUHU216HW,2012-11-07 21:15:00,
2012-11-07 13:20:00,51.7,46.6,30.07,West,270,4.0,4.5,83,0.00,,,0.00,WUHU216HW,2012-11-07 21:20:00,
2012-11-07 13:25:00,51.3,46.3,30.07,WSW,248,3.4,4.9,83,0.00,,,0.00,WUHU216HW,2012-11-07 21:25:00,
2012-11-07 13:30:00,51.5,46.4,30.07,SW,225,2.5,5.1,83,0.00,,,0.00,WUHU216HW,2012-11-07 21:30:00,
2012-11-07 13:35:00,51.5,46.2,30.07,West,270,2.9,5.1,82,0.00,,,0.00,WUHU216HW,2012-11-07 21:35:00,
2012-11-07 13:40:00,51.7,46.4,30.07,WSW,248,2.0,6.0,82,0.00,,,0.00,WUHU216HW,2012-11-07 21:40:00,
2012-11-07 13:45:00,51.7,46.4,30.07,WSW,248,4.3,6.0,82,0.00,,,0.00,WUHU216HW,2012-11-07 21:45:00,
2012-11-07 13:50:00,51.5,46.2,30.07,West,270,0.9,5.4,82,0.00,,,0.00,WUHU216HW,2012-11-07 21:50:00,
2012-11-07 13:55:00,51.7,46.4,30.06,SW,225,2.0,5.6,82,0.00,,,0.00,WUHU216HW,2012-11-07 21:55:00,
2012-11-07 14:00:00,51.7,46.0,30.06,WSW,248,2.2,6.3,81,0.00,,,0.00,WUHU216HW,2012-11-07 22:00:00,
2012-11-07 14:05:00,51.7,46.0,30.06,West,270,6.7,6.7,81,0.00,,,0.00,WUHU216HW,2012-11-07 22:05:00,
2012-11-07 14:10:00,51.7,46.4,30.06,SW,225,1.1,6.7,82,0.00,,,0.00,WUHU216HW,2012-11-07 22:10:00,
2012-11-07 14:15:00,51.7,46.0,30.06,SW,225,1.3,6.7,81,0.00,,,0.00,WUHU216HW,2012-11-07 22:15:00,
2012-11-07 14:20:00,51.8,46.2,30.06,SW,225,6.0,6.7,81,0.00,,,0.00,WUHU216HW,2012-11-07 22:20:00,
2012-11-07 14:25:00,51.8,46.2,30.06,South,180,2.5,6.7,81,0.00,,,0.00,WUHU216HW,2012-11-07 22:25:00,
2012-11-07 14:30:00,51.8,46.2,30.05,SW,225,3.4,6.7,81,0.00,,,0.00,WUHU216HW,2012-11-07 22:30:00,
2012-11-07 14:35:00,51.8,45.9,30.05,WSW,248,3.4,7.6,80,0.00,,,0.00,WUHU216HW,2012-11-07 22:35:00,
2012-11-07 14:40:00,51.8,45.9,30.05,SSW,203,0.7,7.6,80,0.00,,,0.00,WUHU216HW,2012-11-07 22:40:00,
2012-11-07 14:45:00,51.7,46.0,30.05,WSW,248,2.2,3.8,81,0.00,,,0.00,WUHU216HW,2012-11-07 22:45:00,
2012-11-07 14:50:00,51.5,45.5,30.05,SSW,203,4.7,7.6,80,0.00,,,0.00,WUHU216HW,2012-11-07 22:50:00,
2012-11-07 14:55:00,51.5,44.8,30.05,SSE,158,5.4,7.6,78,0.00,,,0.00,WUHU216HW,2012-11-07 22:55:00,
2012-11-07 15:00:00,51.1,44.8,30.05,SSW,203,3.6,6.3,79,0.00,,,0.00,WUHU216HW,2012-11-07 23:00:00,
2012-11-07 15:05:00,50.9,44.6,30.05,SW,225,4.5,5.4,79,0.00,,,0.00,WUHU216HW,2012-11-07 23:05:00,
2012-11-07 15:10:00,50.9,44.6,30.04,SSE,158,3.1,6.9,79,0.00,,,0.00,WUHU216HW,2012-11-07 23:10:00,
2012-11-07 15:15:00,50.6,44.3,30.04,WSW,248,1.8,6.9,79,0.00,,,0.00,WUHU216HW,2012-11-07 23:15:00,
2012-11-07 15:20:00,50.4,44.1,30.04,SW,225,4.7,6.3,79,0.00,,,0.00,WUHU216HW,2012-11-07 23:20:00,
2012-11-07 15:25:00,50.4,44.1,30.04,SSW,203,1.1,6.3,79,0.00,,,0.00,WUHU216HW,2012-11-07 23:25:00,
2012-11-07 15:30:00,50.2,43.9,30.04,SSW,203,2.5,6.3,79,0.00,,,0.00,WUHU216HW,2012-11-07 23:30:00,
2012-11-07 15:35:00,49.9,43.9,30.04,WSW,248,1.3,5.4,80,0.00,,,0.00,WUHU216HW,2012-11-07 23:35:00,
2012-11-07 15:40:00,49.7,43.7,30.04,SW,225,2.5,4.7,80,0.00,,,0.00,WUHU216HW,2012-11-07 23:40:00,
2012-11-07 15:45:00,49.5,43.8,30.04,SW,225,0.4,2.5,81,0.00,,,0.00,WUHU216HW,2012-11-07 23:45:00,
2012-11-07 15:50:00,49.3,44.0,30.04,WSW,248,2.2,2.7,82,0.00,,,0.00,WUHU216HW,2012-11-07 23:50:00,
2012-11-07 15:55:00,49.0,43.7,30.04,West,270,0.7,2.7,82,0.00,,,0.00,WUHU216HW,2012-11-07 23:55:00,
2012-11-07 16:00:00,48.8,43.5,30.04,SW,225,1.6,2.9,82,0.00,,,0.00,WUHU216HW,2012-11-08 00:00:00,
2012-11-07 16:05:00,48.6,43.3,30.04,WSW,248,1.8,2.9,82,0.00,,,0.00,WUHU216HW,2012-11-08 00:05:00,
2012-11-07 16:10:00,48.2,42.9,30.04,SW,225,1.8,2.2,82,0.00,,,0.00,WUHU216HW,2012-11-08 00:10:00,
2012-11-07 16:15:00,48.1,42.8,30.04,SW,225,1.1,2.2,82,0.00,,,0.00,WUHU216HW,2012-11-08 00:15:00,
2012-11-07 16:20:00,47.9,42.9,30.04,SW,225,0.9,2.2,83,0.00,,,0.00,WUHU216HW,2012-11-08 00:20:00,
2012-11-07 16:25:00,47.7,42.8,30.03,WSW,248,1.3,1.8,83,0.00,,,0.00,WUHU216HW,2012-11-08 00:25:00,
2012-11-07 16:30:00,47.5,42.9,30.03,WSW,248,0.9,1.6,84,0.00,,,0.00,WUHU216HW,2012-11-08 00:30:00,
2012-11-07 16:35:00,47.3,42.8,30.03,WSW,248,1.3,1.3,84,0.00,,,0.00,WUHU216HW,2012-11-08 00:35:00,
2012-11-07 16:40:00,47.2,42.6,30.03,SW,225,2.0,2.0,84,0.00,,,0.00,WUHU216HW,2012-11-08 00:40:00,
2012-11-07 16:45:00,47.0,42.4,30.03,SW,225,1.8,2.2,84,0.00,,,0.00,WUHU216HW,2012-11-08 00:45:00,
2012-11-07 16:50:00,46.6,42.0,30.02,WSW,248,2.0,2.2,84,0.00,,,0.00,WUHU216HW,2012-11-08 00:50:00,
2012-11-07 16:55:00,46.3,42.0,30.02,WSW,248,1.8,2.0,85,0.00,,,0.00,WUHU216HW,2012-11-08 00:55:00,
2012-11-07 17:00:00,46.1,41.9,30.02,WSW,248,2.9,2.9,85,0.00,,,0.00,WUHU216HW,2012-11-08 01:00:00,
2012-11-07 17:05:00,45.7,41.5,30.02,WSW,248,2.2,2.9,85,0.00,,,0.00,WUHU216HW,2012-11-08 01:05:00,
2012-11-07 17:10:00,45.7,41.5,30.02,WSW,248,1.8,2.9,85,0.00,,,0.00,WUHU216HW,2012-11-08 01:10:00,
2012-11-07 17:15:00,45.5,41.3,30.02,West,270,1.8,2.2,85,0.00,,,0.00,WUHU216HW,2012-11-08 01:15:00,
2012-11-07 17:20:00,45.4,41.4,30.02,WSW,248,1.8,2.5,86,0.00,,,0.00,WUHU216HW,2012-11-08 01:20:00,
2012-11-07 17:25:00,45.2,41.2,30.02,WSW,248,1.6,2.5,86,0.00,,,0.00,WUHU216HW,2012-11-08 01:25:00,
2012-11-07 17:30:00,45.0,41.0,30.02,WSW,248,1.1,1.8,86,0.00,,,0.00,WUHU216HW,2012-11-08 01:30:00,
2012-11-07 17:35:00,44.8,40.9,30.02,WSW,248,0.9,1.6,86,0.00,,,0.00,WUHU216HW,2012-11-08 01:35:00,
2012-11-07 17:40:00,44.6,41.1,30.02,WSW,248,0.9,1.1,87,0.00,,,0.00,WUHU216HW,2012-11-08 01:40:00,
2012-11-07 17:45:00,44.5,40.9,30.02,WSW,248,1.1,1.3,87,0.00,,,0.00,WUHU216HW,2012-11-08 01:45:00,
2012-11-07 17:50:00,44.3,40.7,30.02,WSW,248,1.3,1.3,87,0.00,,,0.00,WUHU216HW,2012-11-08 01:50:00,
2012-11-07 17:55:00,44.3,40.7,30.02,WSW,248,1.8,1.8,87,0.00,,,0.00,WUHU216HW,2012-11-08 01:55:00,
2012-11-07 18:00:00,44.1,40.5,30.01,WSW,248,1.6,2.2,87,0.00,,,0.00,WUHU216HW,2012-11-08 02:00:00,
2012-11-07 18:05:00,44.1,40.5,30.01,WSW,248,2.5,3.4,87,0.00,,,0.00,WUHU216HW,2012-11-08 02:05:00,
2012-11-07 18:10:00,43.9,40.6,30.02,WSW,248,2.0,3.4,88,0.00,,,0.00,WUHU216HW,2012-11-08 02:10:00,
2012-11-07 18:15:00,43.9,40.6,30.02,WSW,248,1.3,2.5,88,0.00,,,0.00,WUHU216HW,2012-11-08 02:15:00,
2012-11-07 18:20:00,43.9,40.6,30.01,WSW,248,1.1,2.0,88,0.00,,,0.00,WUHU216HW,2012-11-08 02:20:00,
2012-11-07 18:25:00,43.9,40.6,30.01,WSW,248,0.7,1.3,88,0.00,,,0.00,WUHU216HW,2012-11-08 02:25:00,
2012-11-07 18:30:00,43.9,40.6,30.01,WSW,248,1.3,1.3,88,0.00,,,0.00,WUHU216HW,2012-11-08 02:30:00,
2012-11-07 18:35:00,43.9,40.6,30.01,WSW,248,1.3,1.8,88,0.00,,,0.00,WUHU216HW,2012-11-08 02:35:00,
2012-11-07 18:40:00,43.9,40.6,30.01,WSW,248,1.8,1.8,88,0.00,,,0.00,WUHU216HW,2012-11-08 02:40:00,
2012-11-07 18:45:00,43.9,40.6,30.01,WSW,248,1.1,1.8,88,0.00,,,0.00,WUHU216HW,2012-11-08 02:45:00,
2012-11-07 18:50:00,43.6,40.2,30.01,WSW,248,1.3,1.8,88,0.00,,,0.00,WUHU216HW,2012-11-08 02:50:00,
2012-11-07 18:55:00,43.6,40.2,30.01,WSW,248,1.8,2.2,88,0.00,,,0.00,WUHU216HW,2012-11-08 02:55:00,
2012-11-07 19:00:00,43.6,40.6,30.01,WSW,248,1.3,2.2,89,0.00,,,0.00,WUHU216HW,2012-11-08 03:00:00,
2012-11-07 19:05:00,43.6,40.6,30.01,WSW,248,2.0,2.2,89,0.00,,,0.00,WUHU216HW,2012-11-08 03:05:00,
2012-11-07 19:10:00,43.4,40.4,30.00,WSW,248,2.5,2.5,89,0.00,,,0.00,WUHU216HW,2012-11-08 03:10:00,
2012-11-07 19:15:00,43.4,40.4,30.00,WSW,248,2.0,2.5,89,0.00,,,0.00,WUHU216HW,2012-11-08 03:15:00,
2012-11-07 19:20:00,43.4,40.1,30.00,WSW,248,1.6,2.5,88,0.00,,,0.00,WUHU216HW,2012-11-08 03:20:00,
2012-11-07 19:25:00,43.4,40.1,30.00,WSW,248,2.0,2.2,88,0.00,,,0.00,WUHU216HW,2012-11-08 03:25:00,
2012-11-07 19:30:00,43.4,40.1,30.00,WSW,248,1.1,2.5,88,0.00,,,0.00,WUHU216HW,2012-11-08 03:30:00,
2012-11-07 19:35:00,43.4,40.4,30.00,WSW,248,0.7,2.5,89,0.00,,,0.00,WUHU216HW,2012-11-08 03:35:00,
2012-11-07 19:40:00,43.6,40.6,29.99,WSW,248,1.3,1.6,89,0.00,,,0.00,WUHU216HW,2012-11-08 03:40:00,
2012-11-07 19:45:00,43.6,40.6,29.99,WSW,248,1.1,1.8,89,0.00,,,0.00,WUHU216HW,2012-11-08 03:45:00,
2012-11-07 19:50:00,43.6,40.6,29.99,WSW,248,1.1,1.8,89,0.00,,,0.00,WUHU216HW,2012-11-08 03:50:00,
2012-11-07 19:55:00,43.6,40.6,29.99,WSW,248,1.8,1.8,89,0.00,,,0.00,WUHU216HW,2012-11-08 03:55:00,
2012-11-07 20:00:00,43.6,40.6,29.99,WSW,248,1.1,2.2,89,0.00,,,0.00,WUHU216HW,2012-11-08 04:00:00,
2012-11-07 20:05:00,43.6,40.6,29.99,WSW,248,1.6,2.2,89,0.00,,,0.00,WUHU216HW,2012-11-08 04:05:00,
2012-11-07 20:10:00,43.4,40.4,29.99,WSW,248,1.1,1.6,89,0.00,,,0.00,WUHU216HW,2012-11-08 04:10:00,
2012-11-07 20:15:00,43.2,40.2,29.99,WSW,248,1.3,1.8,89,0.00,,,0.00,WUHU216HW,2012-11-08 04:15:00,
2012-11-07 20:20:00,43.0,40.1,29.99,WSW,248,1.1,1.8,89,0.00,,,0.00,WUHU216HW,2012-11-08 04:20:00,
2012-11-07 20:25:00,42.8,39.9,29.99,WSW,248,1.1,1.8,89,0.00,,,0.00,WUHU216HW,2012-11-08 04:25:00,
2012-11-07 20:30:00,42.8,39.9,29.99,WSW,248,0.7,2.2,89,0.00,,,0.00,WUHU216HW,2012-11-08 04:30:00,
2012-11-07 20:35:00,42.8,39.9,29.98,West,270,1.1,2.2,89,0.00,,,0.00,WUHU216HW,2012-11-08 04:35:00,
2012-11-07 20:40:00,42.8,39.9,29.98,West,270,0.7,2.0,89,0.00,,,0.00,WUHU216HW,2012-11-08 04:40:00,
2012-11-07 20:45:00,42.8,39.9,29.98,West,270,0.0,1.3,89,0.00,,,0.00,WUHU216HW,2012-11-08 04:45:00,
2012-11-07 20:50:00,42.8,39.9,29.98,West,270,1.1,1.1,89,0.00,,,0.00,WUHU216HW,2012-11-08 04:50:00,
2012-11-07 20:55:00,42.8,39.9,29.98,West,270,1.3,1.3,89,0.00,,,0.00,WUHU216HW,2012-11-08 04:55:00,
2012-11-07 21:00:00,42.8,39.9,29.97,West,270,1.6,1.8,89,0.00,,,0.00,WUHU216HW,2012-11-08 05:00:00,
2012-11-07 21:05:00,42.7,40.0,29.98,WSW,248,1.8,1.8,90,0.00,,,0.00,WUHU216HW,2012-11-08 05:05:00,
2012-11-07 21:10:00,42.5,39.5,29.97,WSW,248,1.1,1.8,89,0.00,,,0.00,WUHU216HW,2012-11-08 05:10:00,
2012-11-07 21:15:00,42.3,39.3,29.97,WSW,248,0.9,1.3,89,0.00,,,0.00,WUHU216HW,2012-11-08 05:15:00,
2012-11-07 21:20:00,42.3,39.6,29.97,WSW,248,2.0,2.0,90,0.00,,,0.00,WUHU216HW,2012-11-08 05:20:00,
2012-11-07 21:25:00,42.1,39.4,29.97,SW,225,1.8,2.0,90,0.00,,,0.00,WUHU216HW,2012-11-08 05:25:00,
2012-11-07 21:30:00,42.1,39.4,29.97,WSW,248,1.6,2.2,90,0.00,,,0.00,WUHU216HW,2012-11-08 05:30:00,
2012-11-07 21:35:00,41.9,39.2,29.97,West,270,1.8,2.5,90,0.00,,,0.00,WUHU216HW,2012-11-08 05:35:00,
2012-11-07 21:40:00,41.8,39.1,29.97,WSW,248,5.1,5.1,90,0.00,,,0.00,WUHU216HW,2012-11-08 05:40:00,
2012-11-07 21:45:00,41.6,38.9,29.97,WSW,248,2.0,5.1,90,0.00,,,0.00,WUHU216HW,2012-11-08 05:45:00,
2012-11-07 21:50:00,41.6,38.9,29.97,West,270,2.5,5.1,90,0.00,,,0.00,WUHU216HW,2012-11-08 05:50:00,
2012-11-07 21:55:00,41.6,38.9,29.96,WSW,248,2.2,2.7,90,0.00,,,0.00,WUHU216HW,2012-11-08 05:55:00,
2012-11-07 22:00:00,41.6,38.9,29.96,WSW,248,2.5,2.5,90,0.00,,,0.00,WUHU216HW,2012-11-08 06:00:00,
2012-11-07 22:05:00,41.4,38.7,29.96,WSW,248,2.0,3.4,90,0.00,,,0.00,WUHU216HW,2012-11-08 06:05:00,
2012-11-07 22:10:00,41.4,38.7,29.95,WSW,248,1.3,3.4,90,0.00,,,0.00,WUHU216HW,2012-11-08 06:10:00,
2012-11-07 22:15:00,41.4,38.7,29.95,WSW,248,1.6,2.5,90,0.00,,,0.00,WUHU216HW,2012-11-08 06:15:00,
2012-11-07 22:20:00,41.4,38.7,29.95,West,270,1.1,2.0,90,0.00,,,0.00,WUHU216HW,2012-11-08 06:20:00,
2012-11-07 22:25:00,41.2,38.5,29.95,West,270,0.0,2.0,90,0.00,,,0.00,WUHU216HW,2012-11-08 06:25:00,
2012-11-07 22:30:00,41.2,38.5,29.94,North,0,0.4,1.1,90,0.00,,,0.00,WUHU216HW,2012-11-08 06:30:00,
2012-11-07 22:35:00,41.4,38.7,29.94,North,0,0.0,1.1,90,0.00,,,0.00,WUHU216HW,2012-11-08 06:35:00,
2012-11-07 22:40:00,41.4,38.7,29.94,North,0,0.0,0.9,90,0.00,,,0.00,WUHU216HW,2012-11-08 06:40:00,
2012-11-07 22:45:00,41.4,38.7,29.94,West,270,0.4,1.8,90,0.00,,,0.00,WUHU216HW,2012-11-08 06:45:00,
2012-11-07 22:50:00,41.4,38.7,29.94,West,270,0.0,1.8,90,0.00,,,0.00,WUHU216HW,2012-11-08 06:50:00,
2012-11-07 22:55:00,41.4,38.7,29.93,WSW,248,2.2,2.2,90,0.00,,,0.00,WUHU216HW,2012-11-08 06:55:00,
2012-11-07 23:00:00,41.0,38.3,29.93,West,270,1.1,2.5,90,0.00,,,0.00,WUHU216HW,2012-11-08 07:00:00,
2012-11-07 23:05:00,41.0,38.3,29.93,West,270,0.0,2.5,90,0.00,,,0.00,WUHU216HW,2012-11-08 07:05:00,
2012-11-07 23:10:00,41.0,38.6,29.93,West,270,0.0,1.1,91,0.00,,,0.00,WUHU216HW,2012-11-08 07:10:00,
2012-11-07 23:15:00,41.0,38.6,29.92,West,270,0.7,1.3,91,0.00,,,0.00,WUHU216HW,2012-11-08 07:15:00,
2012-11-07 23:20:00,41.0,38.6,29.92,West,270,1.1,1.3,91,0.00,,,0.00,WUHU216HW,2012-11-08 07:20:00,
2012-11-07 23:25:00,41.0,38.6,29.92,West,270,0.4,1.3,91,0.00,,,0.00,WUHU216HW,2012-11-08 07:25:00,
2012-11-07 23:30:00,40.9,38.4,29.92,West,270,0.4,1.3,91,0.00,,,0.00,WUHU216HW,2012-11-08 07:30:00,
2012-11-07 23:35:00,40.9,38.4,29.92,West,270,1.1,1.1,91,0.00,,,0.00,WUHU216HW,2012-11-08 07:35:00,
2012-11-07 23:40:00,40.9,38.4,29.91,West,270,1.6,1.8,91,0.00,,,0.00,WUHU216HW,2012-11-08 07:40:00,
2012-11-07 23:45:00,40.7,38.3,29.91,West,270,1.1,1.8,91,0.00,,,0.00,WUHU216HW,2012-11-08 07:45:00,
2012-11-07 23:50:00,40.5,38.1,29.91,WNW,293,1.1,1.8,91,0.00,,,0.00,WUHU216HW,2012-11-08 07:50:00,
2012-11-07 23:55:00,40.3,37.9,29.91,West,270,1.3,1.6,91,0.00,,,0.00,WUHU216HW,2012-11-08 07:55:00,